This demonstration page uses our WeatherBlox Daily Observations layout. Learn more.

Left ArrowRight Arrow

Hourly Observations for July 16, 2017

Temp ( °F °C ) Dew Point ( °F °C ) Humidity (%) Winds ( mph kmh ) Pressure ( in mb ) Visibility ( mi km ) Precip ( " mm )
12:15 am 00:15 Clear 73 22.9 67 19.5 81 81 Calm 30.03 1017 10 16 0.00 0.00
12:35 am 00:35 Clear 72 22.2 67 19.3 84 84 Calm 30.03 1017 10 16 0.00 0.00
12:55 am 00:55 Clear 72 22.4 67 19.5 84 84 Calm 30.00 1016 10 16 0.00 0.00
1:15 am 01:15 Clear 72 22 66 19 83 83 Calm 30.00 1016 10 16 0.00 0.00
1:35 am 01:35 Clear 71 21.5 66 18.8 85 85 Calm 30.00 1016 10 16 0.00 0.00
1:55 am 01:55 Clear 69 20.3 65 18.6 90 90 Calm 30.03 1017 10 16 0.00 0.00
2:15 am 02:15 Clear 69 20.7 65 18.6 88 88 W 3 6 30.03 1017 10 16 0.00 0.00
2:35 am 02:35 Clear 69 20.5 65 18.6 89 89 W 3 6 30.03 1017 10 16 0.00 0.00
2:55 am 02:55 Clear 67 19.7 65 18.4 92 92 Calm 30.03 1017 10 16 0.00 0.00
3:15 am 03:15 Clear 66 19 63 17.4 91 91 W 3 6 30.03 1017 10 16 0.00 0.00
3:35 am 03:35 Clear 67 19.5 64 17.9 91 91 NW 3 6 30.03 1017 10 16 0.00 0.00
3:55 am 03:55 Clear 66 19 64 17.7 92 92 NNW 3 6 30.03 1017 10 16 0.00 0.00
4:15 am 04:15 Clear 66 18.9 64 17.5 92 92 NNW 3 6 30.03 1017 10 16 0.00 0.00
4:35 am 04:35 Clear 66 18.7 63 17.3 92 92 NW 5 7 30.03 1017 10 16 0.00 0.00
4:55 am 04:55 Clear 65 18.2 62 16.8 92 92 WNW 3 6 30.03 1017 10 16 0.00 0.00
5:15 am 05:15 Clear 64 18 62 16.7 92 92 WNW 5 7 30.03 1017 7 11 0.00 0.00
5:35 am 05:35 Clear 65 18.1 63 17 93 93 Calm 30.03 1017 10 16 0.00 0.00
5:55 am 05:55 Clear 65 18.1 63 17 93 93 WNW 5 7 30.03 1017 7 11 0.00 0.00
6:15 am 06:15 Clear 65 18.2 62 16.9 92 92 Calm 30.03 1017 7 11 0.00 0.00
6:35 am 06:35 Sunny 63 17.3 61 16.1 93 93 Calm 30.06 1018 7 11 0.00 0.00
6:55 am 06:55 Sunny with Mist and Fog 64 17.5 62 16.5 94 94 NNW 3 6 30.03 1017 5 8 0.00 0.00
7:15 am 07:15 Sunny with Mist and Fog 65 18.4 63 17.3 93 93 Calm 30.03 1017 5 8 0.00 0.00
7:35 am 07:35 Sunny 67 19.2 64 17.8 92 92 Calm 30.03 1017 7 11 0.00 0.00
7:55 am 07:55 Sunny 69 20.3 64 17.9 86 86 Calm 30.03 1017 10 16 0.00 0.00
8:15 am 08:15 Sunny 70 21.3 65 18.5 84 84 Calm 30.00 1016 10 16 0.00 0.00
8:35 am 08:35 Sunny 73 22.5 66 19 81 81 Calm 30.00 1016 10 16 0.00 0.00
8:55 am 08:55 Sunny 74 23.1 66 18.8 77 77 WNW 5 7 30.00 1016 10 16 0.00 0.00
9:15 am 09:15 Sunny 75 24.1 67 19.5 76 76 NNW 3 6 30.00 1016 10 16 0.00 0.00
9:35 am 09:35 Sunny 77 25.2 68 20.1 73 73 Calm 29.97 1015 10 16 0.00 0.00
9:55 am 09:55 Sunny 79 25.9 67 19.7 69 69 Calm 29.97 1015 10 16 0.00 0.00
10:15 am 10:15 Sunny 81 27.1 68 19.9 65 65 Calm 29.97 1015 10 16 0.00 0.00
10:35 am 10:35 Sunny 83 28.2 67 19.3 59 59 E 3 6 29.94 1014 10 16 0.00 0.00
10:55 am 10:55 Sunny 85 29.5 66 19.1 54 54 Calm 29.94 1014 10 16 0.00 0.00
11:15 am 11:15 Sunny 86 30.1 68 19.9 54 54 SSE 6 9 29.94 1014 10 16 0.00 0.00
11:35 am 11:35 Sunny 87 30.6 66 18.8 49 49 SE 8 13 29.94 1014 10 16 0.00 0.00
11:55 am 11:55 Sunny 88 30.9 65 18.2 47 47 S 7 11 29.94 1014 10 16 0.00 0.00
12:15 pm 12:15 Sunny 88 31.3 64 18 45 45 SSE 7 11 29.88 1012 10 16 0.00 0.00
12:35 pm 12:35 Sunny 89 31.6 63 17.3 42 42 SSE 7 11 29.88 1012 10 16 0.00 0.00
12:55 pm 12:55 Sunny 90 32 59 15 36 36 SSE 9 15 29.88 1012 10 16 0.00 0.00
1:15 pm 13:15 Sunny 90 32.1 58 14.3 34 34 ESE 10 17 29.88 1012 10 16 0.00 0.00
1:35 pm 13:35 Sunny 90 32.2 59 15.2 36 36 SSE 6 9 29.85 1011 10 16 0.00 0.00
1:55 pm 13:55 Sunny 91 32.8 60 15.7 36 36 SSE 8 13 29.85 1011 10 16 0.00 0.00
2:15 pm 14:15 Sunny 91 32.5 60 15.6 36 36 SSE 9 15 29.85 1011 10 16 0.00 0.00
2:35 pm 14:35 Sunny 91 32.8 61 16.3 37 37 SSE 9 15 29.85 1011 10 16 0.00 0.00
2:55 pm 14:55 Sunny 91 32.6 62 16.9 39 39 SSE 9 15 29.85 1011 10 16 0.00 0.00
3:15 pm 15:15 Partly Cloudy 91 32.7 65 18.3 42 42 SE 6 9 29.85 1011 10 16 0.00 0.00
3:35 pm 15:35 Sunny 91 33 64 17.6 40 40 SE 8 13 29.85 1011 10 16 0.00 0.00
3:55 pm 15:55 Partly Cloudy 91 32.6 63 17.4 40 40 SSE 8 13 29.85 1011 10 16 0.00 0.00
4:15 pm 16:15 Sunny 91 33 64 17.6 40 40 SSE 14 22 29.85 1011 10 16 0.00 0.00
4:35 pm 16:35 Sunny 91 32.8 63 17.3 40 40 SSE 9 15 29.85 1011 10 16 0.00 0.00
4:55 pm 16:55 Sunny 92 33.2 64 17.7 40 40 SSE 14 22 29.85 1011 10 16 0.00 0.00
5:15 pm 17:15 Sunny 92 33.4 63 17.4 38 38 SSE 12 19 29.85 1011 10 16 0.00 0.00
5:35 pm 17:35 Sunny 92 33.2 55 13 29 29 S 12 19 29.83 1010 10 16 0.00 0.00
5:55 pm 17:55 Sunny 92 33.1 57 13.9 31 31 S 8 13 29.83 1010 10 16 0.00 0.00
6:15 pm 18:15 Sunny 90 32.4 60 15.5 36 36 S 7 11 29.83 1010 10 16 0.00 0.00
6:35 pm 18:35 Sunny 90 32.1 62 16.5 39 39 S 8 13 29.83 1010 10 16 0.00 0.00
6:55 pm 18:55 Sunny 91 32.5 62 16.5 38 38 S 8 13 29.83 1010 10 16 0.00 0.00
7:15 pm 19:15 Sunny 89 31.6 64 17.7 43 43 S 7 11 29.83 1010 10 16 0.00 0.00
7:35 pm 19:35 Sunny 86 30.1 66 19 51 51 S 5 7 29.85 1011 10 16 0.00 0.00
7:55 pm 19:55 Partly Cloudy 87 30.5 66 19.1 51 51 S 5 7 29.85 1011 10 16 0.00 0.00
8:15 pm 20:15 Sunny 86 30.1 67 19.2 52 52 SSE 3 6 29.85 1011 10 16 0.00 0.00
8:35 pm 20:35 Sunny 85 29.2 68 20 58 58 Calm 29.85 1011 10 16 0.00 0.00
8:55 pm 20:55 Sunny 84 28.7 67 19.2 56 56 S 3 6 29.85 1011 10 16 0.00 0.00
9:15 pm 21:15 Clear 82 27.8 67 19.3 60 60 Calm 29.85 1011 10 16 0.00 0.00
9:35 pm 21:35 Clear 80 26.5 67 19.5 65 65 Calm 29.88 1012 10 16 0.00 0.00
9:55 pm 21:55 Clear 79 26.1 66 19.1 65 65 SE 3 6 29.88 1012 10 16 0.00 0.00
10:15 pm 22:15 Clear 79 26.3 65 18.6 63 63 SSE 3 6 29.88 1012 10 16 0.00 0.00
10:35 pm 22:35 Clear 78 25.4 67 19.2 69 69 Calm 29.88 1012 10 16 0.00 0.00
10:55 pm 22:55 Clear 75 23.9 68 20 79 79 Calm 29.88 1012 10 16 0.00 0.00
11:15 pm 23:15 Clear 75 23.9 68 19.8 78 78 Calm 29.88 1012 10 16 0.00 0.00
11:35 pm 23:35 Clear 74 23.4 67 19.6 79 79 ESE 3 6 29.88 1012 10 16 0.00 0.00
11:55 pm 23:55 Clear 76 24.3 69 20.3 78 78 SE 5 7 29.88 1012 10 16 0.00 0.00

Powered by AerisWeather